Tracking 27097 objects as of 29-Mar-2023
HD Live streaming from Space Station
objects crossing your sky now

ONEWEB-0670

Track ONEWEB-0670 now!
10-day predictions
ONEWEB-0670 is classified as:


NORAD ID: 55829
Int'l Code: 2023-029AK
Perigee: 587.1 km
Apogee: 607.8 km
Inclination: 86.5 °
Period: 96.5 minutes
Semi major axis: 6968 km
RCS: Unknown
Launch date: March 9, 2023
Source: United Kingdom (UK)
Launch site: AIR FORCE EASTERN TEST RANGE (AFETR)
Your satellite tracking list
Your tracking list is empty




NASA's NSSDC Master Catalog

Two Line Element Set (TLE):
1 55829U 23029AK  23088.00001157  .00067761  00000-0  65425-2 0  9991
2 55829  86.5114 190.8308 0014896 150.8101 104.8976 14.92440903  3553
Source of the keplerian elements: AFSPC